sat.trackr.live / text

‹ back to catalog

AEPEX

NORAD 68506 · 2026-067CU

PAYLOAD ACTIVE UNKNOWN

§ Identity

Operator
Country
US
Launch date
2026-03-30
Launch site
AFWTR
Launch vehicle
Mass (kg)
RCS (m²)

External: N2YO · Heavens-Above · Gunter

§ Orbital elements

Epoch: 2026-05-25T03:17:28.099392Z

Period
94.82 min
Inclination
97.4507°
Eccentricity
0.0004161
Mean motion
15.18630288 rev/d
Perigee alt
507.1 km
Apogee alt
512.8 km
Semi-major
6,888.1 km
B*
3.5086e-4
RAAN
103.9242°
Arg perigee
135.2779°
Mean anomaly
224.8791°
Rev number
832

§ Raw data

AEPEX1 68506U 26067CU  26145.13713078  .00007200  00000+0  35086-3 0  99972 68506  97.4507 103.9242 0004161 135.2779 224.8791 15.18630288  8324

JSON: /api/v1/satellites/68506 · /tle

For live sub-satellite position, see the globe view (requires WebGL).

§ Visibility from observer

Set your observer location to see the next 7 days of passes ≥ 10°. The values pass through the URL so the page stays shareable.

No JS? Fill the form by hand. The geolocation button needs JavaScript.